Volver al catálogo

SHIYAN 10 02

SY-10 02

ActivoCienciaHEO
NORAD 54878·PAYLOAD·🇨🇳 China

Lanzado Dec 29, 2022 desde Xichang Satellite Launch Center

Loading…

Próximos Pases (próximas 24 horas)

TLE

ActualizadoSource: Space-Track

Época: Sep 13, 2026, 21:08 UTC

1 54878U 22178A   26256.88096953  .00000837  00000-0  00000-0 0  9999
2 54878  64.0134 310.3824 6904856 267.6534  18.6662  2.00653885 18335

Sigue SHIYAN 10 02 en tiempo real con AllMySat

Download on the App Store